Main page
Satellite images Climate Cyclones Lightning AirportsFAQ Languages Contact Newsletter About
Weather : Europe Africa North America South America Asia Australia-Oceania Others

ubon-ratchathani-th, Ubon Ratchathani, Ubon Ratchathani Airport

48407

latitude: , longitude: Thailand, elevation: 15-15N m


METAR: VTUU 221700Z 19003KT 140V230 7000 NSC 30/20 Q1008 NOSIG